ONEWEB-0192 (48222 NORAD) Tracking and Keplerian Element Data

This shows tracking and keplerian element data for the satellite.

Feedback or suggestion? Click here.




ElementValue
Catalog48222
NameONEWEB-0192
Epoch Orbit183
Epoch Day170.58334491
Epoch Year2021
RAAN295.005
Inclination87.4811
Eccentricity0.000974
Argument of Perigee76.3373
Mean Anonmoly346.7453
Mean Motion14.38185144
Decay Rate-0.01024713
L11 48222U 21031N 21170.58334491 -.01024713 00000-0 -36151+0 0 9998
L22 48222 87.4811 295.0050 0009740 76.3373 346.7453 14.38185144 1832

Live tracking and technical data element details for ONEWEB-0192 (NORAD 48222). ONEWEB-0192 can be tracked NOW for your location showing map with azimuth and elevation plus other details from your city location.

Track the satellite on the map from your city or location and see movement details for azimuth, elevation, latitude, longitude, range, height, and movement on the map or in text.







IsCatalogInMostPopularTable: catalog: 48222, numindb: 22
Update: records affected: 1



GetName: 48222 ONEWEB-0192

Hit Count: updated at: Mon, 21 Jun 2021 04:53:13 GMT